Flag for U.S.A. Weather past 2 weeks in Fort Myers, Florida, U.S.A.

Now
90 °F

Scattered clouds.


Feels Like: 99 °F
Forecast: 78 / 90 °F
Wind: 10 mph from West

Location: Page Field

Current Time: Jul 30, 2014 at 5:33:43 PM

Latest Report: Jul 30, 2014 at 4:53 PM


Visibility: 10 mi

Pressure: 29.94 "Hg

Humidity: 59%

Dew point: 74 °F

Location of Fort MyersLocation

Historic Weather in Fort Myers — Graph

°F

Fort Myers temperature yesterday

Maximum temperature yesterday: 89 °F (at 1:53 PM)
Minimum temperature yesterday: 76 °F (at 8:53 AM)
Average temperature yesterday: 84 °F

Past Weeks' High & Low Weather Summary

 TemperatureHumidityPressure
High94 °F (Jul 20, 2:53 PM)97% (Jul 17, 12:53 AM)30.12 "Hg (Jul 17, 12:53 AM)
Low75 °F (Jul 16, 3:53 AM)41% (Jul 20, 2:53 PM)29.94 "Hg (Jul 30, 3:53 PM)
Average83 °F78%30.03 "Hg
* Reported Jul 15 3:53 PM — Jul 30 3:53 PM, Fort Myers, Weather by CustomWeather, © 2014

Note: Actual official high and low records may vary slightly from our data, if they occured in-between our weather recording intervals... More about our weather records

Advertising

Fort Myers weather history for previous 24 hours

 ConditionsComfort  
Time TempWeatherWind HumidityBarometerVisibility
3:53 PM
Jul 30
92 °FSunny.15 mph54%29.94 "Hg10 mi
2:53 PM91 °FSunny.10 mph56%29.95 "Hg10 mi
1:53 PM91 °FPassing clouds.13 mph57%29.98 "Hg10 mi
12:53 PM90 °FPassing clouds.9 mph59%29.98 "Hg10 mi
11:53 AM89 °FScattered clouds.9 mph65%29.99 "Hg10 mi
10:53 AM85 °FLight rain. Broken clouds.5 mph77%29.99 "Hg10 mi
9:53 AM87 °FSunny.7 mph67%29.99 "Hg10 mi
8:53 AM83 °FSunny.No wind82%29.98 "Hg10 mi
7:53 AM79 °FSunny.No wind94%29.98 "Hg8 mi
6:53 AM79 °FClear.No wind94%29.97 "Hg9 mi
5:53 AM79 °FClear.No wind94%29.96 "Hg10 mi
4:53 AM79 °FPassing clouds.No wind94%29.95 "Hg10 mi
3:53 AM79 °FClear.3 mph94%29.96 "Hg10 mi
2:53 AM80 °FClear.No wind90%29.96 "Hg10 mi
1:53 AM82 °FClear.No wind85%29.98 "Hg10 mi
12:53 AM81 °FClear.3 mph88%29.98 "Hg10 mi
11:53 PM
Jul 29
81 °FPassing clouds.No wind88%29.98 "Hg10 mi
10:53 PM82 °FClear.3 mph85%29.98 "Hg10 mi
9:53 PM81 °FClear.5 mph88%29.98 "Hg10 mi
8:53 PM82 °FSunny.No wind85%29.98 "Hg10 mi
7:53 PM82 °FScattered clouds.3 mph74%29.98 "Hg10 mi
6:53 PM87 °FPassing clouds.12 mph67%29.97 "Hg10 mi
5:53 PM89 °FPassing clouds.12 mph63%29.97 "Hg10 mi
Weather by CustomWeather, © 2014

See weather overviewHow to use our weather pages